Weather in San Francisco de Campeche

Mexico     19°50′22″N   90°32′01″W
temp.,
°C
wind,
m/s
gust,
m/s
humid.,
%
clouds,
%
prec.,
mm/h
press.,
hPa
HPBL,
m
1 july, fri
fri101:00+24e278549 0.0 1015198
04:00+23ese249280 0.0 1014110
07:00+23ese149537 0.0 1014143
10:00+30e245741 0.0 10151095
13:00+35nnw2542100 0.0 10132431
16:00+32nnw4657100 0.0 1011568
19:00+28nnw367497 0.0 1011389
22:00+26e26835 0.0 1012115
2 july, sat
sat201:00+25ese397686 0.0 1013415
04:00+23ese2792100 0.0 1012209
07:00+23ese289653 0.0 1013295
10:00+30se345371 0.0 10141048
13:00+36ne143317 0.0 10122171
16:00+33nw444562 0.0 1010925
19:00+28n497537 0.0 1010446
22:00+27e286943 0.0 1012229
3 july, sun
sun301:00+27se3106922 0.0 1013793
04:00+23ese288846 0.0 1012324
07:00+23e279587 0.0 1014278
10:00+31ese375461 0.0 10151299
13:00+36e263399 0.0 10132521
16:00+34nnw3546100 0.0 10111395
19:00+29nnw477483 0.1 1012382
22:00+27ese2382100 0.1 101483
4 july, mon
mon401:00+24se2575100 0.2 101494
04:00+23ese268585 0.0 1013147
07:00+23e2894100 0.0 1015243
10:00+29ese3558100 0.0 1016898
13:00+35ene2435100 0.0 10141793
16:00+32nnw555497 0.0 1012759
19:00+28n5117598 0.0 1012557
22:00+29ne41162100 0.1 1013512
5 july, tue
tue501:00+27ese31069100 0.1 1014522
04:00+24ese398277 0.0 1013336
07:00+23se269487 0.0 1014203
10:00+31ese2455100 0.0 10141044
13:00+35nw3540100 0.0 10122299
16:00+29nnw4665100 0.0 1012593
19:00+25wnw2595100 11.9 1011230
22:00+24w1398100 38.4 1014138